Location: D.A.R.C. Observatory
(36.7133°N, 120.8553°W)
Time: 20:41:20
(UTC-08:00)

Daily predictions for brighter satellites

Satellite Brightness Start Highest point End
(mag) Time Altitude Azimuth Time Altitude Azimuth Time Altitude Azimuth
CENTAUR R/B 2.8 17:29:38 10° SW 17:35:34 69° NW 17:42:18 10° NNE
YAOGAN 1 2.5 17:35:26 10° SSE 17:39:45 76° ENE 17:44:05 10° N
COSMO-SKYMED 1 3.2 17:36:51 10° NNE 17:40:54 37° E 17:44:55 10° SSE
Cosmos 1844 Rocket 2.8 17:35:49 10° NNW 17:41:24 56° ENE 17:46:55 10° SE
Meteor 2-2 Rocket 4.4 17:36:22 10° N 17:41:52 53° ENE 17:47:22 10° SSE
CZ-2C R/B 2.7 17:37:08 10° S 17:42:11 76° WSW 17:47:06 10° NNW
Cosmos 2333 4.4 17:39:18 10° SSW 17:44:54 78° WNW 17:50:32 10° NNE
Cosmos 2228 Rocket 3.0 17:42:22 10° N 17:46:46 68° E 17:51:11 10° SSE
CZ-4 R/B 4.4 17:46:46 10° SSE 17:50:54 78° ENE 17:55:02 10° N
Cosmos 389 Rocket 3.5 17:48:57 10° NNW 17:52:27 52° W 17:55:53 10° S
Cosmos 2360 Rocket 4.2 17:48:36 10° WSW 17:53:12 26° WNW 17:57:50 10° N
Cosmos 1980 4.0 17:48:48 10° S 17:54:14 50° ESE 17:59:44 10° NNE
Cosmos 2058 3.8 17:52:07 10° SSE 17:55:36 27° E 17:59:06 10° NNE
Elektron 3 4.1 17:51:12 10° NNW 17:56:03 72° NE 17:59:01 10° SE
COSMOS 2441 4.4 17:56:27 10° SSE 18:01:19 89° WSW 18:06:12 10° NNW
Cosmos 2333 Rocket 2.2 18:01:12 10° SSW 18:06:49 79° ESE 18:12:29 10° NNE
Atlas Centaur 2 3.9 18:06:22 10° WSW 18:10:26 23° SSW 18:13:54 10° SSE
Cosmos 1743 Rocket 4.4 18:06:51 10° SSW 18:11:13 55° W 18:15:38 10° N
Cosmos 372 Rocket 4.4 18:11:20 10° N 18:16:04 38° ENE 18:20:48 10° SE
Meteor 2-10 4.3 18:12:16 10° N 18:17:06 43° ENE 18:22:02 10° SSE
Abrixas 2.7 18:14:40 10° SW 18:17:30 50° SE 18:18:50 26° ENE
Cosmos 1340 Rocket 3.3 18:14:00 10° SSE 18:17:39 37° E 18:21:05 11° NNE
METEOR-M 4.4 18:13:16 10° SE 18:18:16 42° ENE 18:23:18 10° N
Cosmos 2219 Rocket 2.7 18:14:21 10° SSW 18:19:56 62° WNW 18:25:31 10° NNE
Cosmos 2151 2.9 18:17:35 10° S 18:21:48 84° E 18:26:00 10° N
Meteor 1-27 4.3 18:19:41 10° N 18:25:25 56° E 18:31:07 10° SSE
Cosmos 1515 Rocket 4.2 18:21:40 10° NNW 18:26:04 60° W 18:30:25 10° S
Cosmos 540 Rocket 3.4 18:20:56 10° SSW 18:26:06 89° ESE 18:31:19 10° NNE
SL-14 R/B 3.2 18:22:17 10° S 18:26:11 85° W 18:30:09 10° N
Cosmos 1626 3.1 18:24:17 10° SSE 18:27:22 25° E 18:27:22 25° E
Cosmos 2278 Rocket 2.2 18:22:29 10° NNW 18:28:07 60° ENE 18:33:42 10° SE
SKYMED 2 4.2 18:24:45 10° N 18:29:02 57° WNW 18:33:16 10° SSW
Cosmos 1805 Rocket 3.9 18:26:22 10° SSE 18:30:34 43° E 18:34:22 12° NNE
Cosmos 1484 Rocket 4.0 18:27:26 10° S 18:31:10 46° W 18:34:59 10° NNW
Cosmos 783 Rocket 4.4 18:26:17 10° S 18:31:34 76° ESE 18:36:53 10° NNE
OAO 1 Rocket 4.5 18:28:07 10° W 18:33:25 76° S 18:36:35 25° E
SOZ 4.0 18:31:52 10° SW 18:34:03 68° SE 18:34:19 59° E
Cosmos 1151 Rocket 3.2 18:30:54 10° NNW 18:35:09 71° W 18:39:25 10° S
Cosmos 1844 4.3 18:33:31 10° NNW 18:39:12 62° WSW 18:44:54 10° S
USA 215 3.2 18:33:35 10° ESE 18:40:04 67° NE 18:46:34 10° NW
NOAA 12 4.0 18:39:52 10° SSE 18:45:05 84° ENE 18:50:22 10° NNW
Cosmos 1300 3.6 18:42:11 10° NNW 18:45:55 51° W 18:49:37 10° S
Cosmos 1125 Rocket 3.7 18:41:23 10° NNW 18:46:36 73° WSW 18:51:44 10° S
ALOS 2.7 18:42:33 10° SE 18:46:51 38° ENE 18:51:11 10° N
Cosmos 1726 3.2 18:43:36 10° NNW 18:47:13 46° W 18:50:50 10° SSW
Cosmos 44 4.1 18:44:23 10° SW 18:49:33 54° WNW 18:53:37 15° NNE
Cosmos 2237 Rocket 2.8 18:45:16 10° SW 18:50:46 57° WNW 18:56:20 10° NNE
Milstar 3 4.0 18:45:10 10° WSW 18:51:09 35° SSW 18:57:25 12° SE
Hubble Space Telescope 3.4 18:49:18 10° SW 18:51:20 13° SSW 18:53:22 10° S
OTV 4 0.5 18:49:08 10° W 18:51:57 69° SW 18:51:57 69° SW
FREGAT/IRIS 2.9 18:50:19 10° SSE 18:57:40 - N 18:52:44 54° SSE
Spot 2 Rocket 3.7 18:49:13 10° SE 18:53:58 44° ENE 18:58:45 10° N
Sich 1 3.1 18:50:04 10° S 18:54:21 52° E 18:55:01 47° ENE
SL-16 R/B 2.1 18:49:50 10° S 18:55:24 65° ESE 18:58:16 29° NE
Lacrosse 5 rocket 2.3 18:52:37 10° NNW 18:55:10 30° N 18:55:10 30° N
Cosmos 1633 Rocket 3.3 18:53:21 10° SSE 18:57:16 48° ESE 18:57:16 48° ESE
Cosmos 1538 Rocket 4.0 18:56:14 10° S 19:01:25 62° ESE 19:03:07 41° NE
Transit 2A Rocket 4.3 18:58:25 10° NNW 19:02:44 73° ENE 19:03:26 59° ESE
Cosmos 2297 3.7 19:01:38 10° NNW 19:07:17 59° ENE 19:09:08 40° SE
Resurs 01 Rocket 2.7 19:09:28 30° N 19:09:28 30° N 19:11:50 10° N
Aureole 2 Rocket 4.0 19:07:20 10° SW 19:10:41 37° WNW 19:12:29 23° NNW
Intelsat 5-1 Rocket 4.3 19:11:36 10° SSW 19:13:59 16° SSE 19:14:33 16° SSE
SL-19 R/B 4.3 19:09:08 10° SSE 19:15:13 89° NE 19:20:56 10° NNW
USA 229 DEB 3.8 19:12:18 10° S 19:18:50 50° ESE 19:19:18 49° ESE
USA 229 3.8 19:12:25 10° S 19:18:56 50° ESE 19:19:21 49° ESE
Cosmos 1707 Rocket 3.6 19:17:04 10° NNW 19:21:23 72° W 19:25:41 10° S
SJ-6B 4.2 19:19:08 10° SSW 19:22:55 39° W 19:26:46 10° NNW
Cosmos 1461 3.2 19:19:45 10° SW 19:23:33 63° W 19:23:33 63° W
Iridium 4 Rocket 4.3 19:22:04 10° S 19:24:50 34° S 19:24:50 34° S
Cosmos 1666 Rocket 4.1 19:25:01 10° SSW 19:29:14 54° W 19:29:54 49° NW
FengYun 1-2 T 4.4 19:27:17 10° S 19:32:51 71° WSW 19:38:23 10° NNW
FENGYUN 3A 4.2 19:40:47 10° S 19:46:01 56° W 19:51:17 10° NNW
